Temperature
15 14 14 14 14 14 14 14 14 14 14 14 14 14 15 15 15 15 15 16 16 16 16 17 17 17 17 17 17 17 18 18 18 18 18 18 18 18 18 18 18 18 18
14 14 14 13 13 13 13 13 13 13 13 13 13 14 14 14 15 15 15 15 16 16 16 16 17 17 17 17 17 17 17 17 18 18 18 18 18 18 18 18 18 18 18
14 14 13 13 13 13 13 13 13 13 13 13 13 13 14 14 14 14 15 15 15 15 16 16 16 16 16 17 17 17 17 17 17 17 17 18 18 18 18 18 18 18 18
14 13 13 13 13 12 12 12 13 13 13 13 13 13 13 13 14 14 14 14 15 15 15 15 16 16 16 16 16 17 17 17 17 17 17 17 18 18 18 18 18 18 18
14 13 13 13 12 12 12 12 12 12 12 13 13 13 13 13 13 14 14 14 15 15 15 15 15 15 16 16 16 16 16 16 17 17 17 17 17 17 17 17 17 17 17
14 13 13 13 13 12 12 12 12 12 12 12 12 12 13 13 13 13 14 14 14 15 15 15 15 15 15 16 16 16 16 16 16 16 16 16 16 17 17 17 17 17 17
14 13 13 13 13 12 12 12 12 12 12 12 12 12 12 12 13 13 13 13 14 14 14 15 15 15 15 15 15 15 16 16 16 16 16 16 16 16 16 16 17 17 17
14 13 13 13 13 12 12 12 12 12 12 12 12 12 12 12 12 12 13 13 13 13 14 14 14 15 15 15 15 15 15 15 15 15 15 15 15 16 16 16 16 16 16
14 14 13 13 13 12 12 12 12 12 12 12 12 12 12 12 12 12 12 13 13 13 13 14 14 14 14 14 14 15 15 15 15 15 15 15 15 15 15 15 15 15 15
14 14 14 13 13 13 12 12 12 12 12 12 12 11 11 12 12 12 12 12 13 13 13 13 14 14 14 14 14 14 14 15 15 15 15 15 15 15 15 15 15 15 15
14 14 14 13 13 13 12 12 12 12 12 12 11 11 11 11 12 12 12 12 12 13 13 13 13 13 14 14 14 14 14 14 14 14 15 15 15 15 15 15 15 15 15
15 14 14 14 13 13 12 12 12 12 11 11 11 11 11 11 11 11 12 12 12 12 12 13 13 13 13 13 13 14 14 14 14 14 14 14 14 14 14 14 14 14 14
15 14 14 14 13 13 13 12 12 12 12 12 11 11 11 11 11 11 11 12 12 12 12 12 12 13 13 13 13 13 13 13 14 14 14 14 14 14 14 14 14 14 14
15 15 14 14 13 13 13 12 12 12 12 12 11 11 11 11 11 11 11 11 11 12 12 12 12 12 12 12 13 13 13 13 13 13 14 14 14 14 14 14 14 14 14
15 15 15 14 14 13 13 12 12 12 11 11 11 11 11 11 11 11 11 11 11 11 11 11 12 12 12 12 12 12 12 13 13 13 13 13 13 13 14 14 14 14 14
15 15 15 14 14 13 13 13 12 12 11 11 11 11 11 10 10 10 10 10 11 11 11 11 11 12 12 12 12 12 12 12 12 13 13 13 13 13 13 13 13 13 13
15 15 15 15 14 14 13 13 12 12 11 11 11 10 10 10 10 10 10 10 10 10 11 11 11 11 11 11 11 11 12 12 12 12 12 13 13 13 13 13 13 13 13
16 15 15 15 14 14 13 13 12 12 11 11 11 10 10 10 10 10 10 10 10 10 10 10 10 10 11 11 11 11 11 11 12 12 12 12 12 12 13 13 13 13 13
16 15 15 15 14 14 13 13 12 12 12 11 11 10 10 10 10 10 10 10 10 10 10 10 10 10 11 11 11 11 11 11 11 11 12 12 12 12 12 12 13 13 13
16 15 15 15 14 14 14 13 13 12 12 11 11 11 10 10 10 10 10 9 9 10 10 10 10 10 10 10 10 11 11 11 11 11 11 11 12 12 12 12 12 13 12
16 15 15 15 14 14 14 13 13 12 12 11 11 11 11 10 10 10 10 10 10 10 10 10 10 10 10 10 10 10 11 11 11 11 11 11 11 11 12 12 12 12 12
16 16 15 15 15 14 14 14 13 13 12 12 11 11 11 11 10 10 10 10 10 10 10 10 10 10 10 10 10 10 10 11 11 11 11 11 11 11 11 12 12 12 12
16 16 15 15 15 15 14 14 14 13 12 12 12 11 11 11 11 10 10 10 10 10 10 10 10 10 10 10 10 10 10 11 11 11 11 11 11 11 11 11 11 11 11
16 16 16 16 15 15 15 14 14 13 13 12 12 12 11 11 11 11 11 11 11 11 11 11 11 10 10 10 10 10 10 11 11 11 11 11 11 11 11 11 11 11 11
17 16 16 16 16 15 15 15 14 14 13 13 12 12 12 12 11 11 11 11 11 11 11 11 11 11 11 11 11 11 11 11 11 11 11 11 11 11 11 11 11 11 11
17 17 17 16 16 16 16 15 15 14 14 13 13 12 12 12 12 11 11 11 11 11 11 11 11 11 11 11 11 11 11 11 11 11 11 11 11 11 11 11 11 11 11
Wind_Speed
6 7 8 8 9 9 9 9 9 8 6 4 4 4 4 4 4 4 5 6 6 6 4 5 5 5 5 6 6 4 4 3 3 3 0 1 1 3 5 6 6 8 12
8 8 8 8 8 9 9 9 9 9 8 5 4 4 4 4 4 4 4 5 5 6 5 5 5 6 5 6 7 5 4 3 3 4 3 1 2 1 2 4 6 7 7
6 7 8 8 8 9 9 9 9 9 8 8 5 5 3 3 3 4 4 4 5 6 5 5 5 6 6 7 8 7 7 5 3 3 4 4 5 2 1 2 3 5 5
5 6 7 9 8 8 9 9 8 9 9 8 6 5 4 3 4 4 4 5 5 5 5 5 5 6 6 7 7 8 6 6 5 3 3 3 4 4 2 1 1 4 6
5 6 7 8 8 8 8 8 9 8 8 8 7 5 4 4 4 4 5 5 5 5 5 4 5 5 5 7 7 6 7 6 6 5 3 2 1 2 3 3 2 1 3
5 6 7 7 7 7 8 8 9 9 9 8 7 6 6 6 6 6 5 5 4 4 5 4 4 5 5 6 7 7 7 7 6 5 5 4 4 4 3 3 3 3 2
5 6 7 8 8 9 9 8 9 9 9 9 8 7 7 6 5 5 5 5 4 4 5 4 3 4 4 5 5 6 7 7 7 7 6 5 5 4 4 4 3 2 1
4 5 6 6 6 8 8 8 8 8 9 8 8 8 7 5 4 5 5 5 4 4 5 5 3 2 2 3 4 5 6 6 7 8 7 5 5 4 4 4 5 3 1
4 5 5 5 6 6 7 7 7 7 8 8 8 8 8 7 7 7 6 5 5 5 6 5 4 3 2 1 2 3 4 5 6 6 7 6 5 5 4 4 4 5 4
4 5 5 4 5 5 5 6 5 6 6 8 7 7 8 8 7 7 8 9 8 8 8 8 7 6 5 3 1 1 2 3 4 4 6 6 5 5 5 4 4 4 5
4 4 4 4 4 4 4 5 6 6 7 7 7 8 8 8 8 8 8 8 8 9 9 8 8 8 8 6 4 2 2 2 2 2 4 5 5 5 4 4 4 4 4
4 4 4 3 4 4 4 5 5 5 6 6 7 8 8 8 9 9 9 8 9 9 9 9 9 8 8 7 6 5 4 3 2 2 3 3 4 4 4 4 4 4 4
5 4 3 3 4 3 3 4 4 4 5 5 7 7 8 8 8 8 8 8 8 9 9 9 9 8 8 7 7 6 5 3 2 2 3 3 4 4 3 4 4 4 4
5 4 3 4 3 3 2 2 3 3 4 5 6 7 7 7 7 7 7 8 8 8 9 9 8 8 7 7 7 7 6 5 4 3 2 2 3 4 4 4 4 4 4
5 4 4 3 3 2 1 1 2 2 3 4 5 6 6 6 7 7 7 7 8 8 7 8 9 8 7 7 7 6 6 5 4 4 3 3 3 4 4 3 4 5 4
5 4 4 3 3 3 2 1 0 1 2 4 4 5 5 6 6 6 7 7 7 7 8 8 8 8 7 10 11 7 5 5 5 4 4 3 4 3 3 5 6 6 6
6 5 4 3 4 4 4 3 2 1 3 3 3 4 5 5 6 6 7 6 6 6 7 8 8 8 9 12 11 10 6 6 6 5 4 4 4 5 4 6 6 5 5
6 4 3 3 3 3 3 3 3 3 3 3 2 3 4 5 5 6 6 5 4 5 5 6 7 7 10 13 11 10 7 6 6 6 5 5 4 4 5 6 6 6 4
7 5 4 4 3 4 5 5 3 3 3 2 0 1 2 3 4 5 5 4 4 4 5 5 7 8 9 13 12 10 5 6 7 6 6 5 4 5 6 7 7 7 6
6 5 4 4 4 4 6 6 4 3 3 2 2 1 1 2 3 4 3 3 3 3 4 6 7 8 8 13 13 10 5 6 5 5 6 8 6 6 7 6 6 7 5
7 6 5 5 5 6 7 7 5 5 5 3 2 1 1 1 2 3 3 3 4 4 5 6 6 7 9 12 13 11 5 4 5 5 5 5 7 7 7 6 5 6 6
7 7 5 5 5 6 8 7 7 6 5 3 2 1 2 2 1 3 4 4 4 5 4 4 5 6 7 9 10 12 10 6 4 4 3 4 7 7 7 5 6 9 8
8 7 7 6 5 6 8 8 7 7 5 4 3 3 2 1 1 2 2 3 4 3 3 3 3 4 5 7 11 11 10 9 4 3 5 7 8 8 6 7 9 7 6
9 7 7 7 7 7 8 9 8 7 6 5 5 4 3 2 1 1 1 2 1 2 2 2 2 3 4 5 6 6 5 6 5 4 5 8 10 8 7 7 6 5 4
8 7 8 8 9 8 9 9 8 8 7 6 5 5 5 4 3 2 1 2 2 3 2 1 1 1 2 4 6 4 4 3 2 3 4 5 5 5 5 5 5 4 4
9 8 9 9 9 8 9 9 9 8 7 5 5 5 5 4 4 3 2 3 4 4 3 4 3 3 4 5 6 6 6 4 4 5 4 4 4 4 4 4 4 3 3
Wind_Direction
356 1 0 357 354 349 345 341 340 335 332 323 314 306 300 295 293 285 277 274 264 257 242 239 226 213 205 203 197 193 198 198 169 135 117 338 251 191 188 193 190 195 197
357 351 351 350 348 342 340 342 341 334 332 321 300 273 271 272 273 284 293 284 275 266 253 237 226 214 210 207 200 189 185 195 170 149 136 163 328 299 214 188 187 191 188
355 343 343 340 341 342 340 340 332 332 330 330 323 317 309 305 311 310 304 294 288 273 259 245 232 219 208 210 205 196 185 191 196 177 157 160 202 222 273 205 181 174 174
346 340 340 338 337 334 336 335 333 333 332 336 339 335 325 310 293 294 292 296 294 281 263 250 236 227 216 213 212 203 193 181 193 201 205 173 157 158 188 273 197 167 169
341 338 337 332 331 334 338 339 340 338 337 340 341 336 330 312 309 315 317 313 303 288 276 257 241 233 224 215 209 200 193 190 192 187 177 175 161 145 150 182 196 177 180
335 336 337 339 336 338 340 343 345 344 346 349 349 349 345 338 341 339 333 325 314 304 294 274 251 238 229 222 213 204 199 200 197 193 183 174 172 180 165 170 183 191 202
331 335 339 343 339 340 343 344 348 348 348 351 352 350 348 345 345 336 328 330 329 319 315 306 270 248 235 224 211 202 205 200 196 200 202 198 193 165 162 161 162 174 198
325 327 326 329 330 333 338 343 349 350 350 353 352 354 354 354 351 342 339 338 332 321 324 326 311 288 256 229 203 197 205 197 200 205 201 198 202 186 172 167 157 159 184
321 323 325 329 327 331 336 338 346 352 352 353 354 358 0 3 3 3 3 0 359 2 4 5 10 358 350 290 196 196 200 192 199 201 199 198 199 193 187 173 165 163 182
308 316 322 321 321 325 333 342 349 352 352 359 4 11 4 7 9 15 18 16 14 17 19 20 24 26 22 24 43 155 181 179 186 189 189 192 193 186 185 183 177 172 173
281 290 299 304 312 330 342 349 353 357 0 4 10 13 11 11 18 23 20 19 21 22 23 21 25 28 27 28 37 50 91 126 148 162 173 181 175 177 180 175 171 172 165
258 272 285 304 319 328 338 350 356 2 2 8 16 16 15 18 22 21 20 22 25 24 24 23 26 28 29 27 32 39 56 88 115 133 144 163 168 175 175 173 173 173 171
258 275 290 297 300 311 327 344 359 7 10 21 25 19 16 19 19 17 17 20 23 23 23 25 25 24 24 26 28 36 44 65 83 106 144 156 152 164 173 170 169 170 173
250 253 270 279 286 298 307 337 356 13 29 30 29 22 15 15 15 16 17 18 21 24 22 22 20 20 22 27 27 34 39 48 57 72 99 125 148 159 160 162 163 155 156
233 234 243 256 267 280 291 338 13 28 42 42 31 16 10 14 16 17 16 18 22 25 18 22 19 15 19 27 30 34 44 51 57 59 67 77 108 145 154 158 161 154 154
219 222 231 234 237 229 216 189 104 55 63 59 34 15 14 13 12 12 14 17 17 15 19 20 18 19 22 28 37 45 44 50 61 58 47 55 58 80 115 148 157 159 160
203 207 225 233 226 218 200 176 168 105 84 73 41 20 17 16 8 12 16 14 11 14 17 15 14 12 10 27 40 50 56 57 53 51 49 56 56 64 74 88 96 108 132
193 201 211 211 210 198 176 155 132 107 98 87 50 20 19 14 7 12 11 5 4 11 14 15 13 15 16 31 44 55 53 57 52 48 49 57 50 66 88 90 82 73 69
190 197 197 190 188 178 164 138 128 115 108 111 71 348 15 17 10 5 358 354 6 14 14 15 20 22 14 31 48 57 51 57 47 39 43 58 60 72 92 97 94 83 68
179 179 169 164 162 169 152 140 147 146 162 196 214 230 309 13 7 354 353 357 11 15 23 27 23 24 18 28 43 52 52 55 43 32 32 45 60 78 89 98 103 99 86
183 170 165 176 183 168 149 151 168 193 209 204 189 193 236 288 357 5 6 15 32 36 34 30 19 18 17 21 35 45 50 54 52 41 27 25 48 72 79 87 96 109 104
186 177 179 198 196 173 158 167 195 214 212 199 195 218 249 275 57 50 29 30 46 51 37 31 20 10 8 14 24 37 44 53 64 46 18 21 51 69 77 87 101 103 96
196 191 189 202 205 189 174 182 208 209 203 200 212 226 228 232 121 97 67 41 44 57 44 40 25 359 357 4 19 26 31 39 52 39 40 54 63 67 66 80 98 97 96
200 199 193 202 214 208 199 200 202 198 196 206 217 214 207 216 212 144 116 93 67 63 55 42 13 352 352 358 359 2 9 21 35 34 41 58 66 64 62 69 73 77 96
202 197 198 206 216 208 207 209 201 190 196 211 218 214 210 205 200 194 194 193 220 211 194 215 238 313 336 322 340 358 360 358 14 56 51 52 56 59 56 59 66 74 87
199 201 206 211 216 207 209 211 203 191 190 205 214 212 208 207 200 198 241 276 245 251 237 225 222 253 270 306 341 360 9 21 78 83 72 67 70 78 82 85 75 73 89
Height
1559 1556 1552 1548 1544 1540 1536 1533 1530 1527 1524 1521 1519 1517 1516 1515 1514 1513 1513 1513 1513 1513 1514 1516 1517 1519 1520 1522 1525 1526 1529 1531 1534 1537 1539 1541 1543 1544 1546 1548 1550 1551 1553
1558 1554 1551 1547 1542 1538 1534 1531 1528 1524 1521 1518 1516 1514 1512 1511 1510 1509 1509 1508 1508 1509 1509 1510 1512 1513 1515 1517 1519 1522 1524 1526 1529 1532 1535 1537 1540 1540 1542 1544 1546 1548 1549
1557 1554 1550 1546 1542 1538 1533 1530 1526 1523 1519 1516 1513 1511 1508 1507 1506 1505 1505 1504 1504 1504 1505 1505 1506 1508 1510 1511 1513 1516 1519 1521 1524 1527 1530 1532 1533 1536 1538 1540 1542 1544 1546
1557 1554 1550 1545 1541 1537 1533 1529 1525 1521 1518 1514 1511 1508 1506 1504 1503 1502 1501 1501 1500 1500 1500 1501 1501 1503 1504 1506 1508 1510 1513 1516 1519 1522 1525 1528 1529 1532 1533 1536 1538 1540 1542
1557 1553 1550 1546 1542 1538 1533 1529 1525 1521 1517 1513 1510 1507 1504 1502 1501 1500 1498 1497 1497 1496 1496 1497 1497 1498 1499 1501 1503 1505 1507 1510 1513 1516 1519 1522 1525 1527 1529 1530 1533 1536 1538
1557 1553 1550 1546 1542 1538 1533 1529 1525 1521 1517 1513 1509 1506 1503 1501 1499 1498 1496 1495 1494 1493 1493 1493 1493 1494 1495 1496 1498 1500 1503 1505 1508 1511 1513 1516 1519 1521 1524 1526 1528 1531 1534
1556 1553 1549 1546 1542 1538 1534 1529 1525 1521 1517 1513 1510 1506 1503 1501 1498 1497 1495 1493 1492 1491 1490 1490 1489 1490 1490 1492 1493 1495 1498 1500 1502 1505 1508 1511 1514 1517 1520 1522 1525 1527 1530
1556 1553 1550 1546 1543 1539 1535 1531 1526 1522 1518 1514 1511 1507 1504 1501 1499 1497 1495 1493 1491 1490 1488 1487 1487 1487 1487 1488 1489 1491 1493 1495 1498 1500 1503 1506 1508 1512 1515 1518 1521 1523 1525
1556 1553 1550 1547 1543 1540 1536 1532 1528 1524 1520 1516 1512 1508 1505 1502 1499 1497 1495 1493 1491 1489 1488 1486 1485 1485 1484 1485 1486 1487 1489 1492 1494 1496 1498 1501 1503 1506 1509 1513 1516 1519 1520
1555 1553 1550 1547 1544 1541 1537 1533 1530 1526 1522 1518 1514 1510 1507 1504 1501 1499 1496 1494 1492 1490 1488 1486 1485 1484 1483 1483 1484 1485 1487 1489 1490 1492 1494 1497 1499 1502 1504 1507 1511 1513 1517
1555 1552 1550 1547 1545 1541 1538 1535 1531 1527 1524 1520 1516 1512 1509 1506 1503 1500 1498 1495 1493 1491 1489 1487 1486 1484 1483 1483 1484 1484 1485 1486 1488 1490 1491 1494 1496 1498 1500 1503 1506 1509 1512
1554 1552 1550 1547 1545 1542 1539 1536 1532 1529 1526 1522 1518 1515 1512 1508 1505 1502 1500 1497 1495 1493 1491 1489 1487 1486 1484 1484 1483 1483 1484 1485 1487 1488 1489 1491 1494 1496 1498 1500 1502 1505 1507
1553 1552 1550 1547 1545 1542 1540 1537 1534 1531 1528 1524 1521 1517 1514 1511 1508 1505 1502 1500 1497 1495 1493 1491 1489 1488 1486 1485 1484 1484 1484 1484 1486 1487 1489 1491 1492 1494 1496 1498 1500 1502 1504
1552 1551 1549 1547 1545 1543 1540 1538 1535 1532 1529 1526 1523 1519 1516 1513 1510 1507 1505 1502 1499 1497 1495 1493 1491 1490 1488 1487 1486 1486 1485 1485 1486 1487 1489 1490 1492 1493 1495 1496 1498 1500 1502
1551 1550 1549 1547 1545 1543 1541 1539 1536 1534 1531 1528 1524 1521 1518 1515 1512 1510 1507 1504 1501 1499 1497 1495 1493 1491 1490 1489 1488 1488 1487 1486 1487 1487 1489 1490 1491 1492 1494 1495 1497 1498 1500
1550 1549 1548 1546 1545 1543 1541 1539 1537 1535 1532 1529 1526 1523 1520 1517 1514 1511 1509 1506 1504 1501 1499 1497 1495 1493 1492 1491 1490 1489 1489 1488 1488 1488 1489 1490 1491 1492 1493 1495 1496 1498 1500
1548 1548 1547 1545 1544 1543 1541 1539 1538 1535 1533 1530 1528 1525 1522 1519 1516 1513 1511 1508 1506 1503 1501 1499 1497 1495 1493 1492 1491 1490 1490 1489 1489 1489 1490 1490 1491 1492 1493 1494 1495 1497 1499
1547 1546 1546 1545 1544 1542 1541 1540 1538 1536 1534 1531 1529 1526 1523 1521 1518 1515 1513 1510 1508 1506 1503 1501 1499 1497 1495 1494 1493 1492 1492 1491 1491 1491 1491 1491 1492 1492 1494 1495 1496 1498 1499
1545 1545 1545 1544 1543 1542 1541 1540 1538 1536 1534 1532 1530 1527 1525 1522 1520 1517 1515 1512 1510 1508 1506 1503 1501 1499 1497 1496 1495 1494 1493 1493 1492 1492 1492 1492 1493 1494 1495 1496 1497 1499 1501
1543 1544 1543 1543 1542 1542 1541 1540 1538 1536 1535 1533 1531 1529 1526 1524 1521 1519 1516 1514 1512 1510 1508 1506 1503 1501 1499 1498 1497 1496 1495 1495 1494 1494 1494 1494 1495 1496 1497 1498 1499 1501 1502
1542 1542 1542 1542 1542 1541 1540 1539 1538 1537 1535 1533 1532 1530 1527 1525 1523 1520 1518 1516 1514 1512 1510 1508 1506 1504 1502 1501 1499 1498 1498 1497 1497 1496 1496 1496 1497 1498 1499 1501 1502 1503 1504
1540 1541 1541 1541 1541 1540 1540 1539 1538 1536 1535 1534 1532 1531 1529 1527 1525 1522 1520 1517 1515 1513 1512 1510 1508 1506 1505 1503 1502 1501 1500 1500 1499 1499 1499 1499 1500 1501 1502 1503 1504 1505 1507
1538 1539 1539 1539 1539 1539 1539 1538 1537 1536 1535 1534 1533 1531 1530 1528 1526 1524 1521 1519 1517 1515 1513 1512 1510 1508 1507 1506 1504 1503 1503 1502 1502 1501 1501 1502 1503 1503 1504 1506 1507 1508 1509
1535 1536 1537 1537 1537 1537 1537 1537 1536 1535 1534 1533 1532 1531 1530 1529 1527 1525 1523 1521 1519 1517 1515 1513 1512 1510 1509 1508 1507 1506 1505 1505 1504 1504 1504 1505 1505 1506 1507 1508 1509 1510 1511
1533 1534 1534 1535 1535 1535 1535 1535 1534 1534 1533 1532 1532 1531 1530 1529 1527 1526 1524 1522 1520 1518 1517 1515 1513 1512 1511 1510 1509 1508 1507 1507 1507 1507 1507 1507 1508 1508 1509 1510 1511 1512 1513
1529 1530 1531 1532 1532 1532 1532 1532 1532 1532 1531 1531 1530 1530 1529 1528 1527 1526 1525 1523 1521 1519 1518 1516 1514 1513 1512 1511 1510 1510 1509 1509 1509 1509 1509 1509 1509 1510 1510 1511 1512 1513 1514